Location: Ladrillo (historical)
(32.8195°N, 117.2231°W)
Time: 03:45:32
(UTC+00:00)

Cosmos 2322 Rocket - Pass Details

Date: 29 October 2020
Orbit: 832 x 851 km, 71.0° (Epoch: 26 November)

Event Time Altitude Azimuth Distance (km) Brightness Sun altitude
Rises 13:24:57 0° 348° (NNW) 3,410 5.1 -9.0°
Reaches altitude 10° 13:27:36 10° 357° (N) 2,469 4.5 -8.4°
Maximum altitude 13:32:51 38° 64° (ENE) 1,265 3.7 -7.3°
Drops below altitude 10° 13:38:02 10° 132° (SE) 2,446 5.7 -6.3°
Sets 13:40:37 0° 140° (SE) 3,374 6.3 -5.7°
